SCP
0 0 0 0 0 0 0 0 0 0 0 0 0 0 0 0 0 0 0 0 0 0 0 0 0 -0 0 0 0 -0 -0 0 -0 -0 -0 0 0 0 0 0 0 0 0
0 0 0 0 0 0 0 0 0 0 0 0 0 0 0 0 0 0 0 0 0 0 0 0 0 0 0 0 0 -0 -0 0 -0 -0 -0 0 0 0 0 0 0 0 0
0 0 0 0 0 0 0 0 0 0 0 0 0 0 0 0 0 0 0 0 0 0 0 0 0 0 0 0 0 -0 -0 0 -0 -0 -0 -0 0 0 0 0 0 0 0
0 0 0 0 0 0 0 0 0 0 0 0 0 0 0 0 0 0 0 0 0 0 0 0 0 0 0 0 0 0 -0 -0 -0 -0 -0 -0 0 0 0 0 0 0 0
0 0 0 0 0 0 0 0 0 0 0 0 0 0 0 0 0 0 0 0 0 0 0 0 0 0 0 0 0 0 -0 -0 -0 -0 -0 -0 0 0 0 0 0 0 0
0 0 0 0 0 0 0 0 0 0 0 0 0 0 0 0 0 0 0 0 0 0 0 0 0 0 0 0 0 0 0 -0 -0 -0 -0 -0 0 0 0 0 0 0 0
0 0 0 0 0 0 0 0 0 0 0 0 0 0 0 0 0 0 0 0 0 0 0 0 0 -0 0 -0 -0 0 0 -0 -0 0 -0 -0 0 0 0 0 0 0 0
0 0 0 0 0 0 0 0 0 0 0 0 0 0 0 0 0 0 0 0 0 0 0 0 0 -0 -0 -0 -0 -0 -0 -0 -0 -0 -0 0 0 0 0 0 0 0 0
0 0 0 0 0 0 0 0 0 0 0 0 0 0 0 0 0 0 0 0 0 0 0 0 0 0 -0 0 0 -0 -0 -0 -0 0 0 0 0 0 0 0 0 0 0
0 0 0 0 0 0 0 0 0 0 0 0 0 0 0 0 0 0 0 0 0 -0 0 0 0 0 0 0 -0 -0 -0 -0 0 0 -0 0 0 0 0 0 0 0 0
0 0 0 0 0 0 0 0 0 0 0 0 0 0 0 0 0 0 0 0 -0 -0 0 0 0 0 0 0 0 -0 -0 -0 -0 0 0 0 0 0 0 0 0 0 0
0 0 0 0 0 0 0 0 0 0 0 0 0 0 0 0 0 0 0 0 0 0 0 0 0 0 0 0 0 -0 -0 -0 0 0 0 0 0 0 0 0 0 0 0
0 0 0 0 0 0 0 0 0 0 0 0 0 0 0 0 0 0 0 0 0 0 -0 0 0 0 0 0 0 0 -0 0 0 0 0 0 0 0 0 0 0 0 0
0 0 0 0 0 0 0 0 0 0 0 0 0 0 -0 0 -0 0 0 0 0 -0 -0 0 0 0 0 0 0 0 -0 -0 0 0 0 0 0 0 0 0 0 0 0
0 0 0 0 0 0 0 0 0 0 0 0 0 -0 -0 -0 -0 0 0 0 0 0 0 0 0 0 0 0 0 0 0 0 0 0 0 0 0 0 0 0 0 0 0
0 0 0 0 0 0 0 0 0 0 0 0 0 -0 -0 -0 0 -0 -0 -0 -0 -0 0 0 0 0 0 0 0 -0 0 0 0 0 0 0 0 0 0 0 0 0 0
0 0 0 0 0 0 0 0 0 0 0 0 -0 -0 -0 0 0 -0 -0 -0 -0 0 0 0 0 0 0 0 0 0 0 0 0 0 0 0 0 0 0 0 0 0 0
0 0 0 0 0 0 0 0 0 0 0 0 0 -0 -0 -0 0 0 -0 -0 -0 0 0 0 0 0 0 0 0 0 0 0 0 0 0 0 0 0 0 0 0 0 0
0 0 0 0 0 0 0 0 0 0 0 0 0 0 0 -0 0 0 -0 -0 -0 0 0 0 0 0 0 0 0 0 0 0 0 0 0 0 0 0 0 0 0 0 0
0 0 0 0 0 0 0 0 0 0 0 0 -0 -0 -0 -0 0 0 -0 -0 0 0 0 0 0 0 0 0 0 0 0 0 0 0 0 0 0 0 0 0 0 0 0
0 0 0 0 0 0 0 0 0 0 0 0 0 -0 0 -0 -0 0 -0 -0 -0 0 0 0 0 0 0 0 0 0 0 0 0 0 0 0 0 0 0 0 0 0 0
0 0 0 0 0 0 0 0 0 0 0 0 0 -0 0 -0 0 0 -0 0 0 0 0 0 0 0 0 0 0 0 0 0 0 0 0 0 0 0 0 0 0 0 0
0 0 0 0 0 0 0 0 0 0 0 0 0 -0 0 0 0 0 0 -0 0 0 0 0 0 0 0 0 0 0 0 0 0 0 0 0 0 0 0 0 0 0 0
0 0 0 0 0 0 0 0 0 0 0 -0 0 -0 -0 0 0 0 0 -0 -0 0 0 0 0 0 0 0 0 0 0 0 0 0 0 0 0 0 0 0 0 0 0
0 0 0 0 0 0 0 0 0 0 0 -0 0 0 -0 -0 0 0 0 -0 -0 -0 0 0 0 0 0 0 0 0 0 0 0 0 0 0 0 0 0 0 0 0 0
0 0 0 0 0 0 0 0 0 0 0 0 0 -0 -0 -0 -0 0 -0 -0 -0 -0 -0 0 0 0 0 0 0 0 0 0 0 0 0 0 0 0 0 0 0 0 0
Wind_Speed_500mb
41 44 51 57 63 68 74 78 83 86 85 88 90 93 95 100 101 97 92 93 90 83 86 83 91 101 99 61 82 70 67 66 81 89 100 125 50 119 108 100 87 96 90
42 46 53 60 64 69 75 80 83 86 84 85 91 96 101 101 98 92 91 86 84 83 80 75 85 78 96 63 73 74 70 74 77 84 85 108 108 105 137 132 120 108 111
42 49 54 60 66 72 76 81 83 86 88 87 90 93 98 101 93 88 82 82 79 81 83 85 85 79 94 77 62 67 70 68 80 76 93 114 104 115 117 126 137 137 136
42 49 55 61 67 73 78 80 81 84 89 91 92 94 94 94 85 76 70 74 78 79 80 77 80 80 91 81 52 67 67 72 69 69 92 104 119 93 130 131 136 142 131
43 49 57 64 69 73 77 79 81 82 86 89 94 93 92 87 81 68 66 70 74 81 78 74 75 69 88 92 75 46 67 63 77 80 91 87 102 114 124 127 113 138 142
44 54 61 68 71 74 75 78 81 82 84 88 91 93 91 83 68 67 67 76 76 79 82 83 78 76 76 97 83 71 63 73 74 81 92 104 102 131 122 133 134 114 104
45 54 63 71 74 74 75 76 79 82 86 89 90 89 86 81 68 66 65 69 76 81 79 82 82 77 72 77 93 91 72 74 74 77 87 109 82 133 127 134 131 135 129
46 56 63 70 72 72 73 73 76 82 86 87 89 86 83 75 66 65 64 66 69 70 83 81 82 80 79 75 74 91 93 86 86 85 90 106 90 141 141 161 158 148 121
47 57 64 68 69 70 72 72 74 83 88 89 86 84 82 72 63 64 63 64 72 75 86 75 72 78 79 69 67 83 87 95 89 84 90 109 106 143 161 138 133 136 114
46 55 60 63 65 67 67 69 72 79 87 89 91 89 90 84 75 67 61 53 66 70 60 76 70 66 70 60 66 79 90 92 88 85 78 84 111 152 156 168 159 149 131
44 48 52 56 60 60 63 64 72 79 85 90 92 91 84 76 82 63 58 62 66 68 65 74 62 52 57 67 65 76 89 86 97 91 75 89 137 150 151 168 180 168 145
39 42 44 46 50 54 60 63 67 76 85 91 91 92 83 86 72 73 66 56 56 61 62 61 52 48 47 53 55 56 74 82 90 80 63 74 127 133 148 158 168 169 170
33 35 39 41 46 49 57 63 68 73 79 87 85 86 96 85 95 72 75 64 60 58 59 56 49 46 46 55 55 57 50 58 70 69 55 73 121 130 138 156 158 149 138
28 33 37 41 41 45 50 58 62 68 75 79 87 86 98 93 92 88 86 86 72 59 58 54 49 47 42 50 49 42 50 56 60 62 52 85 118 118 124 145 131 142 119
24 29 32 37 42 43 44 55 58 56 53 61 71 78 85 96 91 83 83 80 62 52 58 54 44 34 37 40 44 50 50 60 59 61 51 87 111 116 115 134 123 116 118
21 26 31 36 41 46 51 45 46 54 54 50 53 63 76 73 77 77 76 57 49 49 17 15 21 27 29 32 29 42 53 56 57 53 60 101 113 112 117 121 124 126 112
20 24 28 33 37 44 49 57 66 52 58 64 65 66 73 70 72 75 72 55 56 43 47 37 27 22 24 23 16 31 38 46 51 50 75 98 111 113 116 114 114 114 105
19 22 25 29 35 39 46 53 58 66 74 74 72 81 81 77 72 73 75 67 75 71 69 65 51 40 32 29 27 26 33 41 42 55 85 102 109 116 115 115 118 115 103
12 17 19 23 30 36 41 46 52 56 64 71 75 77 92 87 88 89 91 97 94 91 86 86 69 57 46 40 32 26 31 35 43 70 92 103 109 114 115 115 117 117 110
7 10 14 20 25 30 38 44 50 54 60 66 72 78 86 91 100 103 102 101 101 98 94 91 88 72 61 55 41 26 25 28 45 77 94 108 111 114 112 114 117 123 117
4 6 11 17 21 29 36 41 47 51 55 59 64 66 63 81 92 97 100 100 101 102 101 93 97 92 79 70 55 33 19 15 35 63 92 103 110 107 107 109 118 119 117
4 2 8 13 20 26 32 37 41 46 50 54 56 61 64 72 80 87 93 95 98 100 103 105 100 104 96 88 80 55 31 11 17 51 63 88 106 107 107 108 114 114 113
7 4 6 11 17 23 27 32 37 43 46 50 54 58 63 67 71 76 83 88 92 95 100 107 112 111 103 94 92 79 54 27 8 24 54 70 88 100 103 100 100 102 106
11 7 5 8 13 18 23 29 35 40 43 46 49 52 56 60 64 67 72 78 83 89 93 99 104 113 110 101 95 93 74 43 15 5 27 54 69 84 90 92 100 104 104
15 11 7 8 10 14 21 26 31 36 40 44 47 49 50 52 56 60 65 70 75 82 88 94 94 105 115 102 97 96 87 68 36 14 14 32 44 59 71 83 87 90 92
17 13 10 8 9 12 19 23 27 31 36 40 43 45 48 49 51 55 57 63 69 73 78 84 89 93 109 107 96 94 95 85 69 48 28 20 27 37 47 55 60 67 77
Wind_Direction_500mb
301 309 311 314 317 316 317 318 316 316 317 316 314 312 310 307 304 300 291 287 283 278 277 272 258 247 250 269 244 244 251 237 244 262 254 247 285 199 198 190 173 173 177
301 307 310 314 316 319 319 320 320 319 320 318 316 314 310 305 303 298 291 285 278 278 277 272 261 255 250 259 251 247 248 241 244 252 256 255 254 207 188 196 193 192 186
298 305 311 316 318 320 322 321 322 322 321 319 315 313 311 307 304 298 290 287 281 277 277 272 266 253 247 248 257 248 250 249 249 254 256 254 248 205 192 185 189 186 181
299 307 313 318 321 323 321 322 324 323 321 319 317 315 313 309 303 295 285 280 278 277 278 273 265 254 243 242 253 247 257 253 252 243 245 254 245 208 192 174 173 176 170
303 312 317 321 323 323 324 325 323 323 321 320 320 318 316 314 308 298 292 288 288 291 290 285 266 257 248 240 244 253 249 256 251 257 251 250 249 200 185 173 167 167 172
313 318 323 323 325 327 327 326 325 325 324 323 324 325 322 316 300 292 286 285 284 280 279 280 280 261 257 240 241 244 255 257 256 257 254 248 258 177 178 175 169 163 157
318 322 325 328 329 329 328 329 328 327 328 331 330 328 327 320 304 298 292 287 285 284 281 276 275 272 249 253 243 244 250 258 263 264 259 243 216 178 172 167 165 166 173
322 327 330 329 329 330 331 333 331 330 333 334 334 338 331 322 308 302 298 294 290 285 284 280 270 267 257 248 251 245 247 255 256 263 261 256 252 181 188 182 177 174 170
329 331 331 330 332 334 334 336 336 335 336 338 339 341 340 333 325 311 307 303 298 303 288 287 275 263 259 251 251 249 252 257 257 266 254 262 236 187 188 172 166 164 169
332 335 334 333 336 336 335 337 341 339 339 340 341 346 344 336 329 314 310 307 308 296 299 293 286 269 254 249 245 250 258 256 266 276 283 228 204 185 181 180 175 171 172
332 333 333 335 337 335 337 343 345 343 342 345 345 345 336 329 330 323 317 307 303 298 297 308 289 279 257 243 243 246 248 258 262 273 281 205 183 180 178 181 185 182 176
331 333 333 336 338 340 341 345 350 347 347 348 345 339 335 332 330 322 319 313 308 301 298 298 297 284 266 252 250 254 256 257 261 276 281 204 178 178 178 182 187 188 194
332 333 333 341 343 347 347 350 353 352 353 349 339 337 335 336 330 332 329 320 310 300 289 284 277 277 274 255 247 253 246 247 252 266 262 200 179 180 182 187 190 186 186
333 334 336 343 349 355 353 354 0 357 356 344 340 338 339 333 335 335 331 327 318 299 286 279 270 269 271 256 247 248 231 243 259 261 245 194 182 178 177 185 183 185 182
329 332 340 348 351 358 6 1 4 4 353 343 342 339 339 335 337 334 333 330 327 318 302 285 277 262 264 258 250 252 247 246 258 250 228 189 179 178 178 183 181 180 182
330 337 345 355 356 358 358 10 14 10 11 1 351 348 346 340 342 345 345 349 353 346 357 300 296 288 288 284 272 255 252 252 253 234 211 187 183 182 183 186 186 186 182
337 344 352 356 357 2 1 1 2 14 18 19 15 1 358 353 356 359 0 9 16 32 40 27 9 347 328 314 287 252 277 274 251 218 204 187 193 195 189 184 185 184 182
336 346 355 357 0 5 5 7 8 8 9 14 24 22 12 13 8 10 15 34 36 35 35 24 14 4 352 328 301 277 258 261 257 215 204 195 196 192 187 188 188 186 183
332 346 355 0 3 4 8 10 13 13 14 15 15 25 22 25 32 35 39 38 30 27 28 20 19 12 5 348 330 300 273 254 236 212 205 198 200 197 193 193 192 190 186
318 338 2 9 5 6 11 15 18 19 20 20 21 25 16 23 28 32 38 39 35 31 26 22 19 20 16 6 352 325 283 253 219 213 204 201 201 200 199 199 195 193 191
293 353 13 16 9 15 15 19 22 22 24 25 25 29 19 29 31 31 32 37 38 34 30 26 17 21 23 20 10 360 327 249 205 201 207 204 205 201 201 205 204 201 196
192 54 30 21 23 22 21 23 25 26 25 25 27 30 31 32 34 33 33 33 37 40 38 32 27 22 27 27 20 13 2 329 208 197 201 207 209 211 208 207 207 208 202
174 127 54 36 36 32 30 29 28 29 29 27 26 27 29 32 32 33 32 32 33 37 39 38 34 25 30 33 32 23 14 1 317 210 200 202 210 210 212 212 213 209 205
171 143 104 59 47 42 39 37 33 32 31 29 29 28 29 30 31 30 31 31 32 33 35 38 35 33 28 32 35 33 23 16 8 242 210 207 208 210 212 212 214 215 210
174 157 127 84 61 50 49 45 39 34 31 31 30 29 29 30 31 31 30 31 32 32 33 34 33 34 29 29 34 39 33 31 35 56 145 184 197 203 206 210 211 211 210
180 166 143 111 73 55 53 48 45 38 33 31 30 28 28 28 29 30 30 30 30 31 32 33 32 32 31 24 32 36 41 37 41 51 69 116 154 180 196 205 209 212 215
Wind_Speed_850mb
41 44 51 57 63 68 74 78 83 86 85 88 90 93 95 100 101 97 92 93 90 83 86 83 91 101 99 61 82 70 67 66 81 89 100 125 50 119 108 100 87 96 90
42 46 53 60 64 69 75 80 83 86 84 85 91 96 101 101 98 92 91 86 84 83 80 75 85 78 96 63 73 74 70 74 77 84 85 108 108 105 137 132 120 108 111
42 49 54 60 66 72 76 81 83 86 88 87 90 93 98 101 93 88 82 82 79 81 83 85 85 79 94 77 62 67 70 68 80 76 93 114 104 115 117 126 137 137 136
42 49 55 61 67 73 78 80 81 84 89 91 92 94 94 94 85 76 70 74 78 79 80 77 80 80 91 81 52 67 67 72 69 69 92 104 119 93 130 131 136 142 131
43 49 57 64 69 73 77 79 81 82 86 89 94 93 92 87 81 68 66 70 74 81 78 74 75 69 88 92 75 46 67 63 77 80 91 87 102 114 124 127 113 138 142
44 54 61 68 71 74 75 78 81 82 84 88 91 93 91 83 68 67 67 76 76 79 82 83 78 76 76 97 83 71 63 73 74 81 92 104 102 131 122 133 134 114 104
45 54 63 71 74 74 75 76 79 82 86 89 90 89 86 81 68 66 65 69 76 81 79 82 82 77 72 77 93 91 72 74 74 77 87 109 82 133 127 134 131 135 129
46 56 63 70 72 72 73 73 76 82 86 87 89 86 83 75 66 65 64 66 69 70 83 81 82 80 79 75 74 91 93 86 86 85 90 106 90 141 141 161 158 148 121
47 57 64 68 69 70 72 72 74 83 88 89 86 84 82 72 63 64 63 64 72 75 86 75 72 78 79 69 67 83 87 95 89 84 90 109 106 143 161 138 133 136 114
46 55 60 63 65 67 67 69 72 79 87 89 91 89 90 84 75 67 61 53 66 70 60 76 70 66 70 60 66 79 90 92 88 85 78 84 111 152 156 168 159 149 131
44 48 52 56 60 60 63 64 72 79 85 90 92 91 84 76 82 63 58 62 66 68 65 74 62 52 57 67 65 76 89 86 97 91 75 89 137 150 151 168 180 168 145
39 42 44 46 50 54 60 63 67 76 85 91 91 92 83 86 72 73 66 56 56 61 62 61 52 48 47 53 55 56 74 82 90 80 63 74 127 133 148 158 168 169 170
33 35 39 41 46 49 57 63 68 73 79 87 85 86 96 85 95 72 75 64 60 58 59 56 49 46 46 55 55 57 50 58 70 69 55 73 121 130 138 156 158 149 138
28 33 37 41 41 45 50 58 62 68 75 79 87 86 98 93 92 88 86 86 72 59 58 54 49 47 42 50 49 42 50 56 60 62 52 85 118 118 124 145 131 142 119
24 29 32 37 42 43 44 55 58 56 53 61 71 78 85 96 91 83 83 80 62 52 58 54 44 34 37 40 44 50 50 60 59 61 51 87 111 116 115 134 123 116 118
21 26 31 36 41 46 51 45 46 54 54 50 53 63 76 73 77 77 76 57 49 49 17 15 21 27 29 32 29 42 53 56 57 53 60 101 113 112 117 121 124 126 112
20 24 28 33 37 44 49 57 66 52 58 64 65 66 73 70 72 75 72 55 56 43 47 37 27 22 24 23 16 31 38 46 51 50 75 98 111 113 116 114 114 114 105
19 22 25 29 35 39 46 53 58 66 74 74 72 81 81 77 72 73 75 67 75 71 69 65 51 40 32 29 27 26 33 41 42 55 85 102 109 116 115 115 118 115 103
12 17 19 23 30 36 41 46 52 56 64 71 75 77 92 87 88 89 91 97 94 91 86 86 69 57 46 40 32 26 31 35 43 70 92 103 109 114 115 115 117 117 110
7 10 14 20 25 30 38 44 50 54 60 66 72 78 86 91 100 103 102 101 101 98 94 91 88 72 61 55 41 26 25 28 45 77 94 108 111 114 112 114 117 123 117
4 6 11 17 21 29 36 41 47 51 55 59 64 66 63 81 92 97 100 100 101 102 101 93 97 92 79 70 55 33 19 15 35 63 92 103 110 107 107 109 118 119 117
4 2 8 13 20 26 32 37 41 46 50 54 56 61 64 72 80 87 93 95 98 100 103 105 100 104 96 88 80 55 31 11 17 51 63 88 106 107 107 108 114 114 113
7 4 6 11 17 23 27 32 37 43 46 50 54 58 63 67 71 76 83 88 92 95 100 107 112 111 103 94 92 79 54 27 8 24 54 70 88 100 103 100 100 102 106
11 7 5 8 13 18 23 29 35 40 43 46 49 52 56 60 64 67 72 78 83 89 93 99 104 113 110 101 95 93 74 43 15 5 27 54 69 84 90 92 100 104 104
15 11 7 8 10 14 21 26 31 36 40 44 47 49 50 52 56 60 65 70 75 82 88 94 94 105 115 102 97 96 87 68 36 14 14 32 44 59 71 83 87 90 92
17 13 10 8 9 12 19 23 27 31 36 40 43 45 48 49 51 55 57 63 69 73 78 84 89 93 109 107 96 94 95 85 69 48 28 20 27 37 47 55 60 67 77
Wind_Direction_850mb
301 309 311 314 317 316 317 318 316 316 317 316 314 312 310 307 304 300 291 287 283 278 277 272 258 247 250 269 244 244 251 237 244 262 254 247 285 199 198 190 173 173 177
301 307 310 314 316 319 319 320 320 319 320 318 316 314 310 305 303 298 291 285 278 278 277 272 261 255 250 259 251 247 248 241 244 252 256 255 254 207 188 196 193 192 186
298 305 311 316 318 320 322 321 322 322 321 319 315 313 311 307 304 298 290 287 281 277 277 272 266 253 247 248 257 248 250 249 249 254 256 254 248 205 192 185 189 186 181
299 307 313 318 321 323 321 322 324 323 321 319 317 315 313 309 303 295 285 280 278 277 278 273 265 254 243 242 253 247 257 253 252 243 245 254 245 208 192 174 173 176 170
303 312 317 321 323 323 324 325 323 323 321 320 320 318 316 314 308 298 292 288 288 291 290 285 266 257 248 240 244 253 249 256 251 257 251 250 249 200 185 173 167 167 172
313 318 323 323 325 327 327 326 325 325 324 323 324 325 322 316 300 292 286 285 284 280 279 280 280 261 257 240 241 244 255 257 256 257 254 248 258 177 178 175 169 163 157
318 322 325 328 329 329 328 329 328 327 328 331 330 328 327 320 304 298 292 287 285 284 281 276 275 272 249 253 243 244 250 258 263 264 259 243 216 178 172 167 165 166 173
322 327 330 329 329 330 331 333 331 330 333 334 334 338 331 322 308 302 298 294 290 285 284 280 270 267 257 248 251 245 247 255 256 263 261 256 252 181 188 182 177 174 170
329 331 331 330 332 334 334 336 336 335 336 338 339 341 340 333 325 311 307 303 298 303 288 287 275 263 259 251 251 249 252 257 257 266 254 262 236 187 188 172 166 164 169
332 335 334 333 336 336 335 337 341 339 339 340 341 346 344 336 329 314 310 307 308 296 299 293 286 269 254 249 245 250 258 256 266 276 283 228 204 185 181 180 175 171 172
332 333 333 335 337 335 337 343 345 343 342 345 345 345 336 329 330 323 317 307 303 298 297 308 289 279 257 243 243 246 248 258 262 273 281 205 183 180 178 181 185 182 176
331 333 333 336 338 340 341 345 350 347 347 348 345 339 335 332 330 322 319 313 308 301 298 298 297 284 266 252 250 254 256 257 261 276 281 204 178 178 178 182 187 188 194
332 333 333 341 343 347 347 350 353 352 353 349 339 337 335 336 330 332 329 320 310 300 289 284 277 277 274 255 247 253 246 247 252 266 262 200 179 180 182 187 190 186 186
333 334 336 343 349 355 353 354 0 357 356 344 340 338 339 333 335 335 331 327 318 299 286 279 270 269 271 256 247 248 231 243 259 261 245 194 182 178 177 185 183 185 182
329 332 340 348 351 358 6 1 4 4 353 343 342 339 339 335 337 334 333 330 327 318 302 285 277 262 264 258 250 252 247 246 258 250 228 189 179 178 178 183 181 180 182
330 337 345 355 356 358 358 10 14 10 11 1 351 348 346 340 342 345 345 349 353 346 357 300 296 288 288 284 272 255 252 252 253 234 211 187 183 182 183 186 186 186 182
337 344 352 356 357 2 1 1 2 14 18 19 15 1 358 353 356 359 0 9 16 32 40 27 9 347 328 314 287 252 277 274 251 218 204 187 193 195 189 184 185 184 182
336 346 355 357 0 5 5 7 8 8 9 14 24 22 12 13 8 10 15 34 36 35 35 24 14 4 352 328 301 277 258 261 257 215 204 195 196 192 187 188 188 186 183
332 346 355 0 3 4 8 10 13 13 14 15 15 25 22 25 32 35 39 38 30 27 28 20 19 12 5 348 330 300 273 254 236 212 205 198 200 197 193 193 192 190 186
318 338 2 9 5 6 11 15 18 19 20 20 21 25 16 23 28 32 38 39 35 31 26 22 19 20 16 6 352 325 283 253 219 213 204 201 201 200 199 199 195 193 191
293 353 13 16 9 15 15 19 22 22 24 25 25 29 19 29 31 31 32 37 38 34 30 26 17 21 23 20 10 360 327 249 205 201 207 204 205 201 201 205 204 201 196
192 54 30 21 23 22 21 23 25 26 25 25 27 30 31 32 34 33 33 33 37 40 38 32 27 22 27 27 20 13 2 329 208 197 201 207 209 211 208 207 207 208 202
174 127 54 36 36 32 30 29 28 29 29 27 26 27 29 32 32 33 32 32 33 37 39 38 34 25 30 33 32 23 14 1 317 210 200 202 210 210 212 212 213 209 205
171 143 104 59 47 42 39 37 33 32 31 29 29 28 29 30 31 30 31 31 32 33 35 38 35 33 28 32 35 33 23 16 8 242 210 207 208 210 212 212 214 215 210
174 157 127 84 61 50 49 45 39 34 31 31 30 29 29 30 31 31 30 31 32 32 33 34 33 34 29 29 34 39 33 31 35 56 145 184 197 203 206 210 211 211 210
180 166 143 111 73 55 53 48 45 38 33 31 30 28 28 28 29 30 30 30 30 31 32 33 32 32 31 24 32 36 41 37 41 51 69 116 154 180 196 205 209 212 215